Location: *
(35.8942°N, 23.3025°E)
Time: 22:19:56
(UTC+00:00)

ALOS - Pass Details

Date: 21 September 2021
Orbit: 682 x 685 km, 97.9° (Epoch: 22 October)

Event Time Altitude Azimuth Distance (km) Brightness Sun altitude
Rises 03:13:47 0° 357° (N) 3,051 5.7 -12.9°
Reaches altitude 10° 03:16:21 10° 344° (NNW) 2,131 4.8 -12.4°
Maximum altitude 03:20:05 24° 291° (WNW) 1,389 3.4 -11.7°
Enters shadow 03:23:01 14° 244° (WSW) 1,877 3.9 -11.1°
